Flag for Ireland Weather past 2 weeks in Galway, Ireland

Now
46 °F

Passing clouds.


Feels Like: 42 °F
Forecast: N/A
Wind: 8 mph from South

Location: Shannon Airport

Current Time: Jan 27, 2015 at 5:54:42 PM

Latest Report: Jan 27, 2015 at 5:30 PM


Visibility: 4 mi

Pressure: 30.15 "Hg

Humidity: 93%

Dew point: 45 °F

Location of GalwayLocation

Historic Weather in Galway — Graph

°F

Galway temperature yesterday

Maximum temperature yesterday: 48 °F (at 1:00 PM)
Minimum temperature yesterday: 41 °F (at 5:30 AM)
Average temperature yesterday: 44 °F

Past Weeks' High & Low Weather Summary

 TemperatureHumidityPressure
High54 °F (Jan 25, 12:00 PM)100% (Jan 13, 10:00 PM)30.48 "Hg (Jan 13, 10:00 PM)
Low27 °F (Jan 19, 3:30 AM)49% (Jan 15, 9:30 AM)28.68 "Hg (Jan 14, 7:00 PM)
Average40 °F85%29.87 "Hg
* Reported Jan 12 4:00 PM — Jan 27 4:30 PM, Galway, Weather by CustomWeather, © 2014

Note: Actual official high and low records may vary slightly from our data, if they occured in-between our weather recording intervals... More about our weather records

Advertising

Galway weather history for previous 24 hours

 ConditionsComfort  
Time TempWeatherWind HumidityBarometerVisibility
4:30 PM
Jan 27
45 °FDrizzle. Broken clouds.8 mph100%30.18 "Hg2 mi
4:00 PM45 °FDrizzle. Broken clouds.9 mph93%30.21 "Hg2 mi
3:30 PM46 °FDrizzle. Broken clouds.14 mph87%30.21 "Hg2 mi
3:00 PM48 °FPartly sunny.13 mph76%30.24 "HgN/A
2:30 PM48 °FScattered clouds.12 mph76%30.24 "HgN/A
2:00 PM48 °FScattered clouds.10 mph76%30.27 "HgN/A
1:30 PM46 °FPartly sunny.8 mph82%30.27 "HgN/A
1:00 PM46 °FPartly sunny.9 mph87%30.30 "HgN/A
12:30 PM46 °FPartly sunny.9 mph87%30.33 "HgN/A
12:00 PM45 °FBroken clouds.9 mph93%30.33 "HgN/A
11:30 AM45 °FBroken clouds.7 mph93%30.36 "HgN/A
11:00 AM45 °FDrizzle. Broken clouds.9 mph93%30.36 "Hg3 mi
10:30 AM45 °FBroken clouds.9 mph93%30.36 "HgN/A
10:00 AM45 °FPartly sunny.10 mph87%30.39 "HgN/A
9:30 AM45 °FPartly sunny.9 mph87%30.39 "HgN/A
9:00 AM45 °FPartly sunny.5 mph87%30.39 "HgN/A
8:30 AM45 °FPartly sunny.8 mph87%30.39 "HgN/A
8:00 AM43 °FPassing clouds.8 mph93%30.39 "HgN/A
7:30 AM43 °FDrizzle. Mostly cloudy.9 mph93%30.39 "HgN/A
7:00 AM43 °FPassing clouds.8 mph93%30.39 "HgN/A
6:30 AM43 °FPassing clouds.7 mph93%30.39 "HgN/A
6:00 AM43 °FPassing clouds.6 mph93%30.42 "HgN/A
5:30 AM43 °FPassing clouds.6 mph93%30.42 "HgN/A
5:00 AM43 °FPassing clouds.7 mph93%30.42 "HgN/A
4:30 AM43 °FPassing clouds.9 mph93%30.45 "HgN/A
4:00 AM43 °FPassing clouds.7 mph93%30.45 "Hg5 mi
3:30 AM43 °FPassing clouds.7 mph93%30.45 "HgN/A
3:00 AM43 °FPassing clouds.6 mph93%30.48 "Hg5 mi
2:30 AM43 °FPassing clouds.6 mph93%30.48 "HgN/A
2:00 AM43 °FPartly cloudy.6 mph93%30.48 "HgN/A
1:30 AM43 °FPartly cloudy.9 mph93%30.48 "HgN/A
1:00 AM43 °FPartly cloudy.9 mph93%30.48 "HgN/A
12:30 AM43 °FPartly cloudy.6 mph93%30.48 "HgN/A
12:00 AM43 °FPassing clouds.6 mph87%30.48 "HgN/A
11:30 PM
Jan 26
43 °FPassing clouds.8 mph87%30.48 "HgN/A
11:00 PM43 °FPassing clouds.7 mph93%30.48 "HgN/A
10:30 PM43 °FPartly cloudy.7 mph87%30.48 "HgN/A
10:00 PM43 °FPassing clouds.9 mph87%30.48 "HgN/A
9:30 PM43 °FPartly cloudy.8 mph87%30.48 "HgN/A
9:00 PM41 °FPassing clouds.7 mph93%30.48 "HgN/A
8:30 PM43 °FPartly cloudy.6 mph87%30.48 "HgN/A
8:00 PM41 °FPartly cloudy.6 mph93%30.48 "HgN/A
7:30 PM43 °FPartly cloudy.12 mph87%30.48 "HgN/A
7:00 PM41 °FPassing clouds.10 mph93%30.48 "HgN/A
6:30 PM41 °FPassing clouds.12 mph87%30.48 "HgN/A
6:00 PM43 °FPassing clouds.13 mph87%30.45 "HgN/A
5:30 PM43 °FPassing clouds.9 mph87%30.45 "HgN/A
5:00 PM43 °FScattered clouds.9 mph87%30.45 "HgN/A
Weather by CustomWeather, © 2014

See weather overviewHow to use our weather pages